When you browse on this site, cookies collect data to enhance your experience and personalize the content and advertising you see.
Visit our Privacy Policy to learn more. By continuing to use the site, you agree to this use of cookies and data.
  • In Österreich
  • Länderverzeichnis
  • Für 7 Tage
  • Wassertemperatur
  • Wetterkarte
  • News
  • Widgets
  • user-avatar
    Anmelden

    Stündliche Wetter Tasquillo

    Heute, 21 Oktober, Montag

    Zeit Temperatur Niederschläge Wind Luftdruck Luftfeuchtigkeit
    00:00 +21°C° 0.1 mm 1 m/S 624 mmHg 79%
    01:00 +20°C° 0.1 mm 1 m/S 624 mmHg 79%
    02:00 +20°C° 0.1 mm 1 m/S 624 mmHg 79%
    03:00 +20°C° 0 mm 1 m/S 624 mmHg 80%
    04:00 +19°C° 0 mm 1 m/S 624 mmHg 81%
    05:00 +19°C° 0 mm 1 m/S 623 mmHg 82%
    06:00 +20°C° 0 mm 1 m/S 624 mmHg 77%
    07:00 +22°C° 0 mm 1 m/S 625 mmHg 71%
    08:00 +23°C° 0 mm 1 m/S 626 mmHg 66%
    09:00 +25°C° 0 mm 1 m/S 626 mmHg 60%
    10:00 +26°C° 0 mm 1 m/S 627 mmHg 54%
    11:00 +28°C° 0 mm 1 m/S 627 mmHg 48%
    12:00 +28°C° 0.3 mm 2 m/S 626 mmHg 49%
    13:00 +28°C° 0.3 mm 2 m/S 626 mmHg 50%
    14:00 +28°C° 0.3 mm 2 m/S 625 mmHg 50%
    15:00 +27°C° 0.6 mm 2 m/S 625 mmHg 57%
    16:00 +25°C° 0.6 mm 2 m/S 625 mmHg 64%
    17:00 +24°C° 0.6 mm 2 m/S 625 mmHg 71%
    18:00 +23°C° 0.7 mm 1 m/S 625 mmHg 75%
    19:00 +22°C° 0.7 mm 1 m/S 626 mmHg 78%
    20:00 +21°C° 0.7 mm 1 m/S 626 mmHg 82%
    21:00 +21°C° 0.6 mm 1 m/S 626 mmHg 84%
    22:00 +20°C° 0.6 mm 1 m/S 626 mmHg 86%
    23:00 +20°C° 0.6 mm 1 m/S 626 mmHg 87%

    Morgen, 22 Oktober, Dienstag

    Zeit Temperatur Niederschläge Wind Luftdruck Luftfeuchtigkeit
    00:00 +19°C° 0.8 mm 2 m/S 626 mmHg 89%
    01:00 +18°C° 0.8 mm 2 m/S 626 mmHg 91%
    02:00 +18°C° 0.8 mm 2 m/S 626 mmHg 93%
    03:00 +18°C° 0.4 mm 2 m/S 626 mmHg 93%
    04:00 +19°C° 0.4 mm 1 m/S 626 mmHg 94%
    05:00 +19°C° 0.4 mm 1 m/S 626 mmHg 94%
    06:00 +20°C° 0 mm 1 m/S 627 mmHg 90%
    07:00 +20°C° 0 mm 1 m/S 627 mmHg 85%
    08:00 +21°C° 0 mm 1 m/S 628 mmHg 81%
    09:00 +20°C° 0.1 mm 2 m/S 628 mmHg 78%
    10:00 +21°C° 0.1 mm 3 m/S 628 mmHg 76%
    11:00 +22°C° 0.1 mm 3 m/S 628 mmHg 73%
    12:00 +22°C° 0.2 mm 4 m/S 627 mmHg 72%
    13:00 +22°C° 0.2 mm 4 m/S 627 mmHg 72%
    14:00 +22°C° 0.2 mm 5 m/S 626 mmHg 71%
    15:00 +21°C° 0.1 mm 4 m/S 626 mmHg 76%
    16:00 +20°C° 0.1 mm 4 m/S 626 mmHg 81%
    17:00 +19°C° 0.1 mm 3 m/S 626 mmHg 85%
    18:00 +18°C° 0.1 mm 3 m/S 627 mmHg 87%
    19:00 +18°C° 0.1 mm 2 m/S 627 mmHg 88%
    20:00 +18°C° 0.1 mm 2 m/S 628 mmHg 90%
    21:00 +19°C° 0.1 mm 1 m/S 627 mmHg 91%
    22:00 +18°C° 0.1 mm 1 m/S 627 mmHg 92%
    23:00 +18°C° 0.1 mm 1 m/S 627 mmHg 93%

    übermorgen, 23 Oktober, Mittwoch

    Zeit Temperatur Niederschläge Wind Luftdruck Luftfeuchtigkeit
    00:00 +18°C° 0.3 mm 1 m/S 627 mmHg 93%
    01:00 +18°C° 0.3 mm 1 m/S 627 mmHg 92%
    02:00 +18°C° 0.3 mm 1 m/S 627 mmHg 92%
    03:00 +18°C° 0.1 mm 1 m/S 626 mmHg 92%
    04:00 +18°C° 0.1 mm 1 m/S 626 mmHg 92%
    05:00 +18°C° 0.1 mm 1 m/S 626 mmHg 92%
    06:00 +18°C° 0 mm 1 m/S 627 mmHg 90%
    07:00 +19°C° 0 mm 1 m/S 627 mmHg 87%
    08:00 +19°C° 0 mm 1 m/S 627 mmHg 85%
    09:00 +19°C° 0 mm 2 m/S 627 mmHg 79%
    10:00 +20°C° 0 mm 2 m/S 627 mmHg 74%
    11:00 +21°C° 0 mm 2 m/S 627 mmHg 69%
    12:00 +22°C° 0 mm 3 m/S 626 mmHg 68%
    13:00 +22°C° 0 mm 3 m/S 626 mmHg 67%
    14:00 +22°C° 0 mm 3 m/S 625 mmHg 66%
    15:00 +21°C° 0.1 mm 3 m/S 625 mmHg 71%
    16:00 +20°C° 0.1 mm 3 m/S 625 mmHg 76%
    17:00 +19°C° 0.1 mm 3 m/S 624 mmHg 82%
    18:00 +19°C° 0 mm 2 m/S 625 mmHg 86%
    19:00 +18°C° 0 mm 2 m/S 625 mmHg 90%
    20:00 +18°C° 0 mm 1 m/S 626 mmHg 94%
    21:00 +18°C° 0 mm 1 m/S 625 mmHg 94%
    22:00 +18°C° 0 mm 1 m/S 625 mmHg 94%
    23:00 +16°C° 0 mm 1 m/S 625 mmHg 94%

    24 Oktober, Donnerstag

    Zeit Temperatur Niederschläge Wind Luftdruck Luftfeuchtigkeit
    00:00 +15°C° 0 mm 0 m/S 625 mmHg 93%
    01:00 +15°C° 0 mm 0 m/S 624 mmHg 91%
    02:00 +15°C° 0 mm 0 m/S 624 mmHg 90%
    03:00 +15°C° 0 mm 0 m/S 624 mmHg 90%
    04:00 +15°C° 0 mm 0 m/S 624 mmHg 90%
    05:00 +16°C° 0 mm 1 m/S 624 mmHg 89%
    06:00 +16°C° 0 mm 0 m/S 625 mmHg 84%
    07:00 +17°C° 0 mm 0 m/S 625 mmHg 79%
    08:00 +18°C° 0 mm 0 m/S 626 mmHg 75%
    09:00 +21°C° 0 mm 1 m/S 626 mmHg 68%
    10:00 +23°C° 0 mm 1 m/S 626 mmHg 62%
    11:00 +25°C° 0 mm 1 m/S 626 mmHg 55%
    12:00 +25°C° 0 mm 2 m/S 625 mmHg 54%
    13:00 +26°C° 0 mm 3 m/S 625 mmHg 53%
    14:00 +26°C° 0 mm 4 m/S 624 mmHg 53%
    15:00 +24°C° 0.2 mm 3 m/S 624 mmHg 61%
    16:00 +22°C° 0.2 mm 3 m/S 624 mmHg 69%
    17:00 +21°C° 0.2 mm 2 m/S 624 mmHg 77%
    18:00 +20°C° 0.1 mm 2 m/S 624 mmHg 83%
    19:00 +19°C° 0.1 mm 2 m/S 624 mmHg 88%
    20:00 +19°C° 0.1 mm 1 m/S 624 mmHg 94%
    21:00 +19°C° 0 mm 1 m/S 625 mmHg 93%
    22:00 +19°C° 0 mm 1 m/S 625 mmHg 93%
    23:00 +19°C° 0 mm 1 m/S 625 mmHg 93%

    25 Oktober, Freitag

    Zeit Temperatur Niederschläge Wind Luftdruck Luftfeuchtigkeit
    00:00 +18°C° 0 mm 1 m/S 625 mmHg 92%
    01:00 +18°C° 0 mm 1 m/S 625 mmHg 91%
    02:00 +18°C° 0 mm 1 m/S 624 mmHg 90%
    03:00 +18°C° 0.1 mm 1 m/S 625 mmHg 90%
    04:00 +18°C° 0.1 mm 1 m/S 625 mmHg 90%
    05:00 +18°C° 0.1 mm 1 m/S 625 mmHg 90%
    06:00 +18°C° 0.3 mm 1 m/S 626 mmHg 90%
    07:00 +18°C° 0.3 mm 1 m/S 626 mmHg 90%
    08:00 +18°C° 0.3 mm 1 m/S 626 mmHg 89%
    09:00 +17°C° 0.5 mm 2 m/S 626 mmHg 89%
    10:00 +17°C° 0.5 mm 2 m/S 626 mmHg 89%
    11:00 +17°C° 0.5 mm 3 m/S 626 mmHg 89%
    12:00 +17°C° 0.2 mm 3 m/S 626 mmHg 89%
    13:00 +16°C° 0.2 mm 3 m/S 625 mmHg 88%
    14:00 +16°C° 0.2 mm 3 m/S 625 mmHg 87%
    15:00 +16°C° 0.1 mm 3 m/S 625 mmHg 88%
    16:00 +14°C° 0.1 mm 3 m/S 625 mmHg 90%
    17:00 +14°C° 0.1 mm 3 m/S 626 mmHg 91%
    18:00 +14°C° 0.1 mm 3 m/S 626 mmHg 91%
    19:00 +14°C° 0.1 mm 2 m/S 627 mmHg 92%
    20:00 +14°C° 0.1 mm 2 m/S 627 mmHg 92%
    21:00 +14°C° 0.1 mm 2 m/S 627 mmHg 91%
    22:00 +14°C° 0.1 mm 2 m/S 627 mmHg 91%
    23:00 +14°C° 0.1 mm 2 m/S 627 mmHg 91%

    26 Oktober, Samstag

    Zeit Temperatur Niederschläge Wind Luftdruck Luftfeuchtigkeit
    00:00 +14°C° 0 mm 2 m/S 627 mmHg 91%
    01:00 +14°C° 0 mm 1 m/S 627 mmHg 91%
    02:00 +14°C° 0 mm 1 m/S 626 mmHg 91%
    03:00 +14°C° 0 mm 1 m/S 626 mmHg 92%
    04:00 +13°C° 0 mm 2 m/S 626 mmHg 92%
    05:00 +13°C° 0 mm 2 m/S 626 mmHg 92%
    06:00 +13°C° 0 mm 2 m/S 627 mmHg 91%
    07:00 +13°C° 0 mm 2 m/S 627 mmHg 89%
    08:00 +13°C° 0 mm 2 m/S 627 mmHg 87%
    09:00 +14°C° 0 mm 2 m/S 627 mmHg 83%
    10:00 +15°C° 0 mm 2 m/S 627 mmHg 79%
    11:00 +16°C° 0 mm 2 m/S 626 mmHg 74%
    12:00 +17°C° 0 mm 2 m/S 626 mmHg 72%
    13:00 +18°C° 0 mm 2 m/S 625 mmHg 69%
    14:00 +18°C° 0 mm 3 m/S 625 mmHg 66%
    15:00 +17°C° 0 mm 3 m/S 625 mmHg 69%
    16:00 +17°C° 0 mm 2 m/S 625 mmHg 72%
    17:00 +16°C° 0 mm 2 m/S 625 mmHg 75%
    18:00 +15°C° 0 mm 2 m/S 625 mmHg 78%
    19:00 +14°C° 0 mm 1 m/S 625 mmHg 81%
    20:00 +14°C° 0 mm 1 m/S 626 mmHg 83%
    21:00 +14°C° 0 mm 1 m/S 626 mmHg 83%
    22:00 +14°C° 0 mm 1 m/S 626 mmHg 82%
    23:00 +15°C° 0 mm 1 m/S 626 mmHg 82%

    27 Oktober, Sonntag

    Zeit Temperatur Niederschläge Wind Luftdruck Luftfeuchtigkeit
    00:00 +13°C° 0 mm 0 m/S 625 mmHg 84%
    01:00 +13°C° 0 mm 0 m/S 625 mmHg 86%
    02:00 +13°C° 0 mm 0 m/S 624 mmHg 88%
    03:00 +13°C° 0 mm 0 m/S 624 mmHg 89%
    04:00 +13°C° 0 mm 0 m/S 624 mmHg 90%
    05:00 +12°C° 0 mm 0 m/S 624 mmHg 91%
    06:00 +14°C° 0 mm 0 m/S 625 mmHg 84%
    07:00 +16°C° 0 mm 0 m/S 626 mmHg 78%
    08:00 +18°C° 0 mm 0 m/S 626 mmHg 71%
    09:00 +21°C° 0 mm 1 m/S 627 mmHg 65%
    10:00 +23°C° 0 mm 1 m/S 627 mmHg 59%
    11:00 +25°C° 0 mm 1 m/S 627 mmHg 53%
    12:00 +25°C° 0 mm 2 m/S 627 mmHg 53%
    13:00 +25°C° 0 mm 3 m/S 626 mmHg 53%
    14:00 +26°C° 0 mm 4 m/S 626 mmHg 53%
    15:00 +24°C° 0 mm 3 m/S 626 mmHg 59%
    16:00 +22°C° 0 mm 3 m/S 626 mmHg 65%
    17:00 +20°C° 0 mm 2 m/S 625 mmHg 72%
    18:00 +19°C° 0 mm 2 m/S 626 mmHg 76%
    19:00 +19°C° 0 mm 1 m/S 626 mmHg 80%
    20:00 +18°C° 0 mm 1 m/S 626 mmHg 84%
    21:00 +16°C° 0 mm 0 m/S 626 mmHg 83%
    22:00 +16°C° 0 mm 0 m/S 626 mmHg 83%
    23:00 +15°C° 0 mm 0 m/S 626 mmHg 83%
    Mehr zeigen